Time,TemperatureF,DewpointF,PressureIn,WindDirection,WindDirectionDegrees,WindSpeedMPH,WindSpeedGustMPH,Humidity,HourlyPrecipIn,Conditions,Clouds,dailyrainin,SoftwareType,DateUTC
2013-03-02 00:04:00,42.7,20.0,30.32,NE,36,4.0,4.0,40,0.00,,,0.00,Wunderground v.1.15,2013-03-02 07:04:00,
2013-03-02 00:09:00,42.5,19.8,30.32,NE,36,2.0,4.0,40,0.00,,,0.00,Wunderground v.1.15,2013-03-02 07:09:00,
2013-03-02 00:14:00,42.2,19.6,30.32,NE,36,2.0,3.0,40,0.00,,,0.00,Wunderground v.1.15,2013-03-02 07:14:00,
2013-03-02 00:21:00,41.5,19.5,30.32,North,5,5.0,5.0,41,0.00,,,0.00,Wunderground v.1.15,2013-03-02 07:21:00,
2013-03-02 00:26:00,41.4,20.5,30.32,NNW,343,5.0,6.0,43,0.00,,,0.00,Wunderground v.1.15,2013-03-02 07:26:00,
2013-03-02 00:31:00,42.1,20.1,30.32,NNW,334,2.0,5.0,41,0.00,,,0.00,Wunderground v.1.15,2013-03-02 07:31:00,
2013-03-02 00:36:00,42.2,20.2,30.32,NNW,333,2.0,5.0,41,0.00,,,0.00,Wunderground v.1.15,2013-03-02 07:36:00,
2013-03-02 00:42:00,42.0,20.0,30.32,NNW,333,4.0,4.0,41,0.00,,,0.00,Wunderground v.1.15,2013-03-02 07:42:00,
2013-03-02 00:48:00,41.5,19.5,30.32,NNW,334,1.0,4.0,41,0.00,,,0.00,Wunderground v.1.15,2013-03-02 07:48:00,
2013-03-02 00:54:00,40.9,19.5,30.32,NNW,333,0.0,2.0,42,0.00,,,0.00,Wunderground v.1.15,2013-03-02 07:54:00,
2013-03-02 01:01:00,40.3,19.5,30.32,NNW,334,0.0,0.0,43,0.00,,,0.00,Wunderground v.1.15,2013-03-02 08:01:00,
2013-03-02 01:07:00,39.7,19.5,30.32,NNW,333,0.0,1.0,44,0.00,,,0.00,Wunderground v.1.15,2013-03-02 08:07:00,
2013-03-02 01:12:00,39.2,19.6,30.32,NNW,333,0.0,1.0,45,0.00,,,0.00,Wunderground v.1.15,2013-03-02 08:12:00,
2013-03-02 01:17:00,38.8,19.2,30.32,NNW,333,0.0,1.0,45,0.00,,,0.00,Wunderground v.1.15,2013-03-02 08:17:00,
2013-03-02 01:23:00,38.5,19.5,30.32,NNW,334,0.0,0.0,46,0.00,,,0.00,Wunderground v.1.15,2013-03-02 08:23:00,
2013-03-02 01:28:00,38.1,19.1,30.32,NNW,334,0.0,0.0,46,0.00,,,0.00,Wunderground v.1.15,2013-03-02 08:28:00,
2013-03-02 01:33:00,37.8,19.3,30.32,NNW,335,0.0,1.0,47,0.00,,,0.00,Wunderground v.1.15,2013-03-02 08:33:00,
2013-03-02 01:38:00,37.5,19.1,30.32,NNW,334,0.0,1.0,47,0.00,,,0.00,Wunderground v.1.15,2013-03-02 08:38:00,
2013-03-02 01:43:00,37.2,19.3,30.33,NNW,333,1.0,1.0,48,0.00,,,0.00,Wunderground v.1.15,2013-03-02 08:43:00,
2013-03-02 01:49:00,36.8,18.9,30.33,NNW,333,0.0,2.0,48,0.00,,,0.00,Wunderground v.1.15,2013-03-02 08:49:00,
2013-03-02 01:54:00,36.5,19.1,30.33,NNW,334,0.0,1.0,49,0.00,,,0.00,Wunderground v.1.15,2013-03-02 08:54:00,
2013-03-02 02:01:00,36.1,18.8,30.33,NNW,333,0.0,0.0,49,0.00,,,0.00,Wunderground v.1.15,2013-03-02 09:01:00,
2013-03-02 02:06:00,35.8,19.4,30.33,NNW,334,0.0,2.0,51,0.00,,,0.00,Wunderground v.1.15,2013-03-02 09:06:00,
2013-03-02 02:11:00,35.7,19.3,30.33,NNW,333,3.0,3.0,51,0.00,,,0.00,Wunderground v.1.15,2013-03-02 09:11:00,
2013-03-02 02:16:00,35.6,19.2,30.33,NNW,334,0.0,4.0,51,0.00,,,0.00,Wunderground v.1.15,2013-03-02 09:16:00,
2013-03-02 02:21:00,35.2,18.9,30.33,NNW,334,2.0,2.0,51,0.00,,,0.00,Wunderground v.1.15,2013-03-02 09:21:00,
2013-03-02 02:26:00,34.8,18.9,30.33,NNW,333,1.0,2.0,52,0.00,,,0.00,Wunderground v.1.15,2013-03-02 09:26:00,
2013-03-02 02:31:00,34.5,18.2,30.33,NNW,333,3.0,3.0,51,0.00,,,0.00,Wunderground v.1.15,2013-03-02 09:31:00,
2013-03-02 02:37:00,34.0,18.2,30.33,North,5,4.0,5.0,52,0.00,,,0.00,Wunderground v.1.15,2013-03-02 09:37:00,
2013-03-02 02:42:00,33.8,18.9,30.32,North,9,1.0,3.0,54,0.00,,,0.00,Wunderground v.1.15,2013-03-02 09:42:00,
2013-03-02 02:47:00,33.8,18.9,30.32,North,9,0.0,3.0,54,0.00,,,0.00,Wunderground v.1.15,2013-03-02 09:47:00,
2013-03-02 02:52:00,33.8,19.3,30.32,North,10,3.0,4.0,55,0.00,,,0.00,Wunderground v.1.15,2013-03-02 09:52:00,
2013-03-02 02:57:00,34.2,19.3,30.32,North,5,3.0,6.0,54,0.00,,,0.00,Wunderground v.1.15,2013-03-02 09:57:00,
2013-03-02 03:02:00,34.5,20.0,30.32,North,10,2.0,3.0,55,0.00,,,0.00,Wunderground v.1.15,2013-03-02 10:02:00,
2013-03-02 03:07:00,34.6,19.2,30.32,North,5,3.0,3.0,53,0.00,,,0.00,Wunderground v.1.15,2013-03-02 10:07:00,
2013-03-02 03:12:00,34.6,19.2,30.32,NW,319,4.0,4.0,53,0.00,,,0.00,Wunderground v.1.15,2013-03-02 10:12:00,
2013-03-02 03:17:00,34.5,19.1,30.32,NW,319,0.0,4.0,53,0.00,,,0.00,Wunderground v.1.15,2013-03-02 10:17:00,
2013-03-02 03:22:00,34.4,19.0,30.33,NW,319,0.0,2.0,53,0.00,,,0.00,Wunderground v.1.15,2013-03-02 10:22:00,
2013-03-02 03:27:00,34.3,19.4,30.33,NW,319,0.0,2.0,54,0.00,,,0.00,Wunderground v.1.15,2013-03-02 10:27:00,
2013-03-02 03:33:00,34.3,19.4,30.33,NW,320,2.0,2.0,54,0.00,,,0.00,Wunderground v.1.15,2013-03-02 10:33:00,
2013-03-02 03:38:00,34.0,19.1,30.33,NW,319,1.0,2.0,54,0.00,,,0.00,Wunderground v.1.15,2013-03-02 10:38:00,
2013-03-02 03:43:00,33.7,18.8,30.33,NW,319,1.0,1.0,54,0.00,,,0.00,Wunderground v.1.15,2013-03-02 10:43:00,
2013-03-02 03:48:00,33.3,18.0,30.33,NW,319,0.0,2.0,53,0.00,,,0.00,Wunderground v.1.15,2013-03-02 10:48:00,
2013-03-02 03:53:00,32.8,18.4,30.33,NW,319,0.0,1.0,55,0.00,,,0.00,Wunderground v.1.15,2013-03-02 10:53:00,
2013-03-02 03:58:00,32.5,18.5,30.34,NW,319,1.0,2.0,56,0.00,,,0.00,Wunderground v.1.15,2013-03-02 10:58:00,
2013-03-02 04:03:00,32.2,18.2,30.34,NW,319,0.0,0.0,56,0.00,,,0.00,Wunderground v.1.15,2013-03-02 11:03:00,
2013-03-02 04:08:00,31.9,18.4,30.34,NW,319,0.0,0.0,57,0.00,,,0.00,Wunderground v.1.15,2013-03-02 11:08:00,
2013-03-02 04:13:00,31.6,18.1,30.34,NW,319,1.0,2.0,57,0.00,,,0.00,Wunderground v.1.15,2013-03-02 11:13:00,
2013-03-02 04:18:00,31.4,18.3,30.34,NW,319,1.0,2.0,58,0.00,,,0.00,Wunderground v.1.15,2013-03-02 11:18:00,
2013-03-02 04:23:00,31.3,18.2,30.35,NW,319,0.0,1.0,58,0.00,,,0.00,Wunderground v.1.15,2013-03-02 11:23:00,
2013-03-02 04:28:00,31.0,17.5,30.35,NW,319,0.0,2.0,57,0.00,,,0.00,Wunderground v.1.15,2013-03-02 11:28:00,
2013-03-02 04:33:00,30.7,18.1,30.35,NW,319,0.0,2.0,59,0.00,,,0.00,Wunderground v.1.15,2013-03-02 11:33:00,
2013-03-02 04:38:00,30.5,18.3,30.35,NW,319,1.0,2.0,60,0.00,,,0.00,Wunderground v.1.15,2013-03-02 11:38:00,
2013-03-02 04:43:00,30.4,18.2,30.34,NW,319,0.0,1.0,60,0.00,,,0.00,Wunderground v.1.15,2013-03-02 11:43:00,
2013-03-02 04:48:00,30.3,18.5,30.34,NW,319,0.0,2.0,61,0.00,,,0.00,Wunderground v.1.15,2013-03-02 11:48:00,
2013-03-02 04:53:00,30.2,18.4,30.35,NW,319,1.0,1.0,61,0.00,,,0.00,Wunderground v.1.15,2013-03-02 11:53:00,
2013-03-02 04:59:00,30.3,18.8,30.35,NW,319,2.0,2.0,62,0.00,,,0.00,Wunderground v.1.15,2013-03-02 11:59:00,
2013-03-02 05:04:00,30.5,18.6,30.35,NW,319,1.0,2.0,61,0.00,,,0.00,Wunderground v.1.15,2013-03-02 12:04:00,
2013-03-02 05:09:00,30.5,18.6,30.35,NW,318,1.0,2.0,61,0.00,,,0.00,Wunderground v.1.15,2013-03-02 12:09:00,
2013-03-02 05:14:00,30.2,18.0,30.35,NW,319,1.0,1.0,60,0.00,,,0.00,Wunderground v.1.15,2013-03-02 12:14:00,
2013-03-02 05:19:00,29.9,18.1,30.35,NW,319,1.0,1.0,61,0.00,,,0.00,Wunderground v.1.15,2013-03-02 12:19:00,
2013-03-02 05:24:00,29.6,18.2,30.36,NW,318,0.0,0.0,62,0.00,,,0.00,Wunderground v.1.15,2013-03-02 12:24:00,
2013-03-02 05:29:00,29.2,17.8,30.36,NW,319,0.0,1.0,62,0.00,,,0.00,Wunderground v.1.15,2013-03-02 12:29:00,
2013-03-02 05:34:00,28.9,17.5,30.36,NW,319,0.0,1.0,62,0.00,,,0.00,Wunderground v.1.15,2013-03-02 12:34:00,
2013-03-02 05:39:00,28.6,17.6,30.36,NW,319,0.0,1.0,63,0.00,,,0.00,Wunderground v.1.15,2013-03-02 12:39:00,
2013-03-02 05:44:00,28.2,17.9,30.36,NW,319,0.0,1.0,65,0.00,,,0.00,Wunderground v.1.15,2013-03-02 12:44:00,
2013-03-02 05:49:00,28.1,18.2,30.36,NW,319,0.0,1.0,66,0.00,,,0.00,Wunderground v.1.15,2013-03-02 12:49:00,
2013-03-02 05:54:00,28.1,18.2,30.36,NW,319,0.0,0.0,66,0.00,,,0.00,Wunderground v.1.15,2013-03-02 12:54:00,
2013-03-02 05:59:00,27.9,18.0,30.36,NW,319,0.0,0.0,66,0.00,,,0.00,Wunderground v.1.15,2013-03-02 12:59:00,
2013-03-02 06:04:00,27.7,17.8,30.36,NW,319,0.0,0.0,66,0.00,,,0.00,Wunderground v.1.15,2013-03-02 13:04:00,
2013-03-02 06:09:00,27.6,18.1,30.37,NW,319,0.0,1.0,67,0.00,,,0.00,Wunderground v.1.15,2013-03-02 13:09:00,
2013-03-02 06:14:00,27.5,17.6,30.36,NW,319,0.0,1.0,66,0.00,,,0.00,Wunderground v.1.15,2013-03-02 13:14:00,
2013-03-02 06:19:00,27.4,17.9,30.36,NW,319,1.0,1.0,67,0.00,,,0.00,Wunderground v.1.15,2013-03-02 13:19:00,
2013-03-02 06:24:00,27.3,17.8,30.36,NW,319,0.0,1.0,67,0.00,,,0.00,Wunderground v.1.15,2013-03-02 13:24:00,
2013-03-02 06:29:00,27.0,17.1,30.36,NW,319,2.0,2.0,66,0.00,,,0.00,Wunderground v.1.15,2013-03-02 13:29:00,
2013-03-02 06:34:00,26.9,17.0,30.37,NW,319,2.0,4.0,66,0.00,,,0.00,Wunderground v.1.15,2013-03-02 13:34:00,
2013-03-02 06:39:00,26.9,17.4,30.37,NW,319,3.0,4.0,67,0.00,,,0.00,Wunderground v.1.15,2013-03-02 13:39:00,
2013-03-02 06:44:00,26.9,17.0,30.37,NW,319,2.0,5.0,66,0.00,,,0.00,Wunderground v.1.15,2013-03-02 13:44:00,
2013-03-02 06:49:00,26.8,17.3,30.38,NW,319,3.0,5.0,67,0.00,,,0.00,Wunderground v.1.15,2013-03-02 13:49:00,
2013-03-02 06:54:00,26.7,17.2,30.38,NW,319,5.0,5.0,67,0.00,,,0.00,Wunderground v.1.15,2013-03-02 13:54:00,
2013-03-02 06:59:00,26.9,17.4,30.38,NW,319,2.0,5.0,67,0.00,,,0.00,Wunderground v.1.15,2013-03-02 13:59:00,
2013-03-02 07:04:00,27.0,17.5,30.38,NW,319,0.0,3.0,67,0.00,,,0.00,Wunderground v.1.15,2013-03-02 14:04:00,
2013-03-02 07:09:00,27.1,17.2,30.38,NW,319,2.0,4.0,66,0.00,,,0.00,Wunderground v.1.15,2013-03-02 14:09:00,
2013-03-02 07:14:00,27.6,17.4,30.38,NW,319,2.0,5.0,65,0.00,,,0.00,Wunderground v.1.15,2013-03-02 14:14:00,
2013-03-02 07:19:00,28.2,17.2,30.39,NW,319,3.0,6.0,63,0.00,,,0.00,Wunderground v.1.15,2013-03-02 14:19:00,
2013-03-02 07:25:00,29.0,17.6,30.39,NW,320,3.0,4.0,62,0.00,,,0.00,Wunderground v.1.15,2013-03-02 14:25:00,
2013-03-02 07:30:00,29.8,17.6,30.39,NW,320,4.0,4.0,60,0.00,,,0.00,Wunderground v.1.15,2013-03-02 14:30:00,
2013-03-02 07:35:00,30.8,17.7,30.39,NW,319,1.0,4.0,58,0.00,,,0.00,Wunderground v.1.15,2013-03-02 14:35:00,
2013-03-02 07:40:00,31.8,17.9,30.39,NW,319,1.0,4.0,56,0.00,,,0.00,Wunderground v.1.15,2013-03-02 14:40:00,
2013-03-02 07:45:00,32.4,17.6,30.40,NW,320,2.0,3.0,54,0.00,,,0.00,Wunderground v.1.15,2013-03-02 14:45:00,
2013-03-02 07:50:00,33.1,17.8,30.40,NW,319,1.0,3.0,53,0.00,,,0.00,Wunderground v.1.15,2013-03-02 14:50:00,
2013-03-02 07:55:00,33.6,17.8,30.40,NW,319,2.0,3.0,52,0.00,,,0.00,Wunderground v.1.15,2013-03-02 14:55:00,
2013-03-02 08:00:00,34.1,17.8,30.40,NW,319,2.0,3.0,51,0.00,,,0.00,Wunderground v.1.15,2013-03-02 15:00:00,
2013-03-02 08:05:00,34.7,17.9,30.40,NW,320,2.0,3.0,50,0.00,,,0.00,Wunderground v.1.15,2013-03-02 15:05:00,
2013-03-02 08:10:00,35.3,18.0,30.40,NW,320,0.0,3.0,49,0.00,,,0.00,Wunderground v.1.15,2013-03-02 15:10:00,
2013-03-02 08:15:00,36.1,18.8,30.40,NW,320,1.0,2.0,49,0.00,,,0.00,Wunderground v.1.15,2013-03-02 15:15:00,
2013-03-02 08:20:00,36.9,19.0,30.40,NW,321,1.0,2.0,48,0.00,,,0.00,Wunderground v.1.15,2013-03-02 15:20:00,
2013-03-02 08:25:00,38.2,19.7,30.40,NW,322,3.0,5.0,47,0.00,,,0.00,Wunderground v.1.15,2013-03-02 15:25:00,
2013-03-02 08:30:00,39.5,19.9,30.40,NW,322,3.0,5.0,45,0.00,,,0.00,Wunderground v.1.15,2013-03-02 15:30:00,
2013-03-02 08:35:00,40.2,19.5,30.40,NW,323,2.0,4.0,43,0.00,,,0.00,Wunderground v.1.15,2013-03-02 15:35:00,
2013-03-02 08:40:00,40.5,19.7,30.41,NNW,348,4.0,4.0,43,0.00,,,0.00,Wunderground v.1.15,2013-03-02 15:40:00,
2013-03-02 08:45:00,40.9,20.6,30.40,NNE,33,3.0,6.0,44,0.00,,,0.00,Wunderground v.1.15,2013-03-02 15:45:00,
2013-03-02 08:50:00,41.9,20.4,30.40,NNW,340,4.0,4.0,42,0.00,,,0.00,Wunderground v.1.15,2013-03-02 15:50:00,
2013-03-02 08:55:00,42.4,20.3,30.40,NNW,347,3.0,5.0,41,0.00,,,0.00,Wunderground v.1.15,2013-03-02 15:55:00,
2013-03-02 09:00:00,42.9,20.8,30.40,North,349,6.0,6.0,41,0.00,,,0.00,Wunderground v.1.15,2013-03-02 16:00:00,
2013-03-02 09:05:00,43.4,21.2,30.40,NNE,15,3.0,6.0,41,0.00,,,0.00,Wunderground v.1.15,2013-03-02 16:05:00,
2013-03-02 09:11:00,44.3,21.5,30.40,NE,40,5.0,5.0,40,0.00,,,0.00,Wunderground v.1.15,2013-03-02 16:11:00,
2013-03-02 09:16:00,45.1,21.6,30.40,NE,34,7.0,8.0,39,0.00,,,0.00,Wunderground v.1.15,2013-03-02 16:16:00,
2013-03-02 09:21:00,46.0,21.8,30.39,NNE,20,3.0,5.0,38,0.00,,,0.00,Wunderground v.1.15,2013-03-02 16:21:00,
2013-03-02 09:26:00,46.5,21.6,30.39,NNE,25,1.0,5.0,37,0.00,,,0.00,Wunderground v.1.15,2013-03-02 16:26:00,
2013-03-02 09:32:00,47.2,22.2,30.39,NNE,20,3.0,5.0,37,0.00,,,0.00,Wunderground v.1.15,2013-03-02 16:32:00,
2013-03-02 09:37:00,47.8,22.1,30.39,NNE,20,3.0,5.0,36,0.00,,,0.00,Wunderground v.1.15,2013-03-02 16:37:00,
2013-03-02 09:42:00,48.3,22.5,30.38,NNW,348,4.0,6.0,36,0.00,,,0.00,Wunderground v.1.15,2013-03-02 16:42:00,
2013-03-02 09:47:00,48.7,22.9,30.38,NNW,340,2.0,6.0,36,0.00,,,0.00,Wunderground v.1.15,2013-03-02 16:47:00,
2013-03-02 09:52:00,49.6,23.0,30.38,NNE,26,4.0,6.0,35,0.00,,,0.00,Wunderground v.1.15,2013-03-02 16:52:00,
2013-03-02 09:57:00,50.3,22.3,30.38,NW,326,4.0,8.0,33,0.00,,,0.00,Wunderground v.1.15,2013-03-02 16:57:00,
2013-03-02 10:02:00,50.8,22.7,30.37,NNE,17,0.0,4.0,33,0.00,,,0.00,Wunderground v.1.15,2013-03-02 17:02:00,
2013-03-02 10:07:00,51.4,23.2,30.37,North,9,5.0,7.0,33,0.00,,,0.00,Wunderground v.1.15,2013-03-02 17:07:00,
2013-03-02 10:12:00,51.8,22.8,30.36,North,349,4.0,5.0,32,0.00,,,0.00,Wunderground v.1.15,2013-03-02 17:12:00,
2013-03-02 10:17:00,52.1,22.3,30.36,North,5,1.0,6.0,31,0.00,,,0.00,Wunderground v.1.15,2013-03-02 17:17:00,
2013-03-02 10:22:00,52.4,22.6,30.36,NE,34,3.0,3.0,31,0.00,,,0.00,Wunderground v.1.15,2013-03-02 17:22:00,
2013-03-02 10:27:00,53.0,23.1,30.35,North,355,1.0,4.0,31,0.00,,,0.00,Wunderground v.1.15,2013-03-02 17:27:00,
2013-03-02 10:32:00,53.7,22.2,30.35,NW,315,6.0,6.0,29,0.00,,,0.00,Wunderground v.1.15,2013-03-02 17:32:00,
2013-03-02 10:37:00,53.7,22.2,30.35,NNW,337,3.0,6.0,29,0.00,,,0.00,Wunderground v.1.15,2013-03-02 17:37:00,
2013-03-02 10:42:00,53.9,22.3,30.35,NW,322,3.0,5.0,29,0.00,,,0.00,Wunderground v.1.15,2013-03-02 17:42:00,
2013-03-02 10:47:00,54.1,23.3,30.35,NNW,347,5.0,7.0,30,0.00,,,0.00,Wunderground v.1.15,2013-03-02 17:47:00,
2013-03-02 10:52:00,54.7,22.2,30.34,WSW,254,0.0,4.0,28,0.00,,,0.00,Wunderground v.1.15,2013-03-02 17:52:00,
2013-03-02 10:57:00,55.0,22.4,30.34,WSW,254,1.0,4.0,28,0.00,,,0.00,Wunderground v.1.15,2013-03-02 17:57:00,
2013-03-02 11:02:00,55.8,23.1,30.34,NE,53,5.0,5.0,28,0.00,,,0.00,Wunderground v.1.15,2013-03-02 18:02:00,
2013-03-02 11:07:00,56.2,22.6,30.34,ESE,112,1.0,8.0,27,0.00,,,0.00,Wunderground v.1.15,2013-03-02 18:07:00,
2013-03-02 11:12:00,56.0,22.4,30.34,ESE,119,3.0,5.0,27,0.00,,,0.00,Wunderground v.1.15,2013-03-02 18:12:00,
2013-03-02 11:17:00,56.1,22.5,30.33,ESE,122,2.0,5.0,27,0.00,,,0.00,Wunderground v.1.15,2013-03-02 18:17:00,
2013-03-02 11:22:00,56.7,23.0,30.33,North,355,2.0,4.0,27,0.00,,,0.00,Wunderground v.1.15,2013-03-02 18:22:00,
2013-03-02 11:27:00,57.3,22.7,30.33,WNW,300,1.0,9.0,26,0.00,,,0.00,Wunderground v.1.15,2013-03-02 18:27:00,
2013-03-02 11:32:00,57.4,22.8,30.33,North,5,3.0,5.0,26,0.00,,,0.00,Wunderground v.1.15,2013-03-02 18:32:00,
2013-03-02 11:37:00,57.7,23.0,30.32,SSW,200,3.0,8.0,26,0.00,,,0.00,Wunderground v.1.15,2013-03-02 18:37:00,
2013-03-02 11:42:00,58.4,23.6,30.32,SSW,210,2.0,4.0,26,0.00,,,0.00,Wunderground v.1.15,2013-03-02 18:42:00,
2013-03-02 11:48:00,58.9,23.1,30.31,South,188,4.0,10.0,25,0.00,,,0.00,Wunderground v.1.15,2013-03-02 18:48:00,
2013-03-02 11:53:00,59.3,23.4,30.31,WSW,238,6.0,7.0,25,0.00,,,0.00,Wunderground v.1.15,2013-03-02 18:53:00,
2013-03-02 11:58:00,59.1,23.3,30.31,SSW,194,3.0,8.0,25,0.00,,,0.00,Wunderground v.1.15,2013-03-02 18:58:00,
2013-03-02 12:03:00,59.3,23.4,30.31,South,185,3.0,5.0,25,0.00,,,0.00,Wunderground v.1.15,2013-03-02 19:03:00,
2013-03-02 12:08:00,59.6,22.7,30.30,WSW,249,6.0,7.0,24,0.00,,,0.00,Wunderground v.1.15,2013-03-02 19:08:00,
2013-03-02 12:13:00,59.6,23.7,30.29,WSW,242,1.0,6.0,25,0.00,,,0.00,Wunderground v.1.15,2013-03-02 19:13:00,
2013-03-02 12:18:00,59.9,23.0,30.29,WSW,250,4.0,7.0,24,0.00,,,0.00,Wunderground v.1.15,2013-03-02 19:18:00,
2013-03-02 12:23:00,60.2,22.2,30.29,NNW,333,5.0,6.0,23,0.00,,,0.00,Wunderground v.1.15,2013-03-02 19:23:00,
2013-03-02 12:28:00,60.0,22.0,30.28,WNW,292,2.0,7.0,23,0.00,,,0.00,Wunderground v.1.15,2013-03-02 19:28:00,
2013-03-02 12:33:00,60.0,22.0,30.27,NNW,340,1.0,5.0,23,0.00,,,0.00,Wunderground v.1.15,2013-03-02 19:33:00,
2013-03-02 12:38:00,60.1,23.1,30.27,West,277,1.0,5.0,24,0.00,,,0.00,Wunderground v.1.15,2013-03-02 19:38:00,
2013-03-02 12:43:00,60.9,22.8,30.26,West,276,1.0,1.0,23,0.00,,,0.00,Wunderground v.1.15,2013-03-02 19:43:00,
2013-03-02 12:48:00,61.5,22.3,30.26,WSW,258,8.0,8.0,22,0.00,,,0.00,Wunderground v.1.15,2013-03-02 19:48:00,
2013-03-02 12:53:00,61.8,22.5,30.26,NW,309,7.0,10.0,22,0.00,,,0.00,Wunderground v.1.15,2013-03-02 19:53:00,
2013-03-02 12:58:00,62.1,21.7,30.26,WSW,247,4.0,11.0,21,0.00,,,0.00,Wunderground v.1.15,2013-03-02 19:58:00,
2013-03-02 13:03:00,62.0,21.6,30.25,NW,304,7.0,8.0,21,0.00,,,0.00,Wunderground v.1.15,2013-03-02 20:03:00,
2013-03-02 13:08:00,61.9,21.5,30.25,NW,315,2.0,8.0,21,0.00,,,0.00,Wunderground v.1.15,2013-03-02 20:08:00,
2013-03-02 13:13:00,62.1,21.7,30.25,SSW,213,7.0,10.0,21,0.00,,,0.00,Wunderground v.1.15,2013-03-02 20:13:00,
2013-03-02 13:18:00,62.4,21.9,30.24,WSW,250,6.0,10.0,21,0.00,,,0.00,Wunderground v.1.15,2013-03-02 20:18:00,
2013-03-02 13:23:00,62.4,21.9,30.24,SSW,198,6.0,6.0,21,0.00,,,0.00,Wunderground v.1.15,2013-03-02 20:23:00,
2013-03-02 13:28:00,62.5,22.0,30.23,SE,124,2.0,7.0,21,0.00,,,0.00,Wunderground v.1.15,2013-03-02 20:28:00,
2013-03-02 13:33:00,62.9,22.3,30.23,South,172,3.0,6.0,21,0.00,,,0.00,Wunderground v.1.15,2013-03-02 20:33:00,
2013-03-02 13:38:00,62.8,22.2,30.23,South,172,1.0,6.0,21,0.00,,,0.00,Wunderground v.1.15,2013-03-02 20:38:00,
2013-03-02 13:43:00,63.2,21.4,30.22,SSE,168,4.0,6.0,20,0.00,,,0.00,Wunderground v.1.15,2013-03-02 20:43:00,
2013-03-02 13:48:00,63.4,21.6,30.22,South,173,1.0,6.0,20,0.00,,,0.00,Wunderground v.1.15,2013-03-02 20:48:00,
2013-03-02 13:53:00,63.8,21.9,30.22,SSE,167,7.0,7.0,20,0.00,,,0.00,Wunderground v.1.15,2013-03-02 20:53:00,
2013-03-02 13:58:00,64.0,22.1,30.22,WSW,254,1.0,8.0,20,0.00,,,0.00,Wunderground v.1.15,2013-03-02 20:58:00,
2013-03-02 14:03:00,63.6,21.7,30.22,SE,143,6.0,7.0,20,0.00,,,0.00,Wunderground v.1.15,2013-03-02 21:03:00,
2013-03-02 14:08:00,63.9,22.0,30.21,SSW,192,4.0,7.0,20,0.00,,,0.00,Wunderground v.1.15,2013-03-02 21:08:00,
2013-03-02 14:13:00,64.4,21.2,30.21,SW,233,7.0,8.0,19,0.00,,,0.00,Wunderground v.1.15,2013-03-02 21:13:00,
2013-03-02 14:18:00,64.9,21.6,30.21,SW,218,3.0,8.0,19,0.00,,,0.00,Wunderground v.1.15,2013-03-02 21:18:00,
2013-03-02 14:23:00,64.9,21.6,30.21,SW,229,6.0,6.0,19,0.00,,,0.00,Wunderground v.1.15,2013-03-02 21:23:00,
2013-03-02 14:28:00,65.2,20.6,30.20,SSW,194,7.0,7.0,18,0.00,,,0.00,Wunderground v.1.15,2013-03-02 21:28:00,
2013-03-02 14:34:00,65.5,20.8,30.20,SSW,197,2.0,7.0,18,0.00,,,0.00,Wunderground v.1.15,2013-03-02 21:34:00,
2013-03-02 14:39:00,65.4,20.7,30.20,South,188,3.0,9.0,18,0.00,,,0.00,Wunderground v.1.15,2013-03-02 21:39:00,
2013-03-02 14:44:00,66.0,19.9,30.19,South,174,9.0,10.0,17,0.00,,,0.00,Wunderground v.1.15,2013-03-02 21:44:00,
2013-03-02 14:49:00,65.7,21.0,30.19,SE,138,3.0,10.0,18,0.00,,,0.00,Wunderground v.1.15,2013-03-02 21:49:00,
2013-03-02 14:54:00,65.7,19.6,30.19,South,189,6.0,7.0,17,0.00,,,0.00,Wunderground v.1.15,2013-03-02 21:54:00,
2013-03-02 14:59:00,66.0,19.9,30.19,SSE,168,6.0,9.0,17,0.00,,,0.00,Wunderground v.1.15,2013-03-02 21:59:00,
2013-03-02 15:04:00,65.9,19.8,30.19,SSE,166,0.0,10.0,17,0.00,,,0.00,Wunderground v.1.15,2013-03-02 22:04:00,
2013-03-02 15:09:00,66.0,19.9,30.18,SSE,167,5.0,10.0,17,0.00,,,0.00,Wunderground v.1.15,2013-03-02 22:09:00,
2013-03-02 15:14:00,66.1,20.0,30.18,South,182,8.0,9.0,17,0.00,,,0.00,Wunderground v.1.15,2013-03-02 22:14:00,
2013-03-02 15:19:00,66.4,20.2,30.17,WSW,247,7.0,10.0,17,0.00,,,0.00,Wunderground v.1.15,2013-03-02 22:19:00,
2013-03-02 15:24:00,66.5,20.3,30.17,South,171,4.0,5.0,17,0.00,,,0.00,Wunderground v.1.15,2013-03-02 22:24:00,
2013-03-02 15:29:00,66.8,20.5,30.17,SSW,196,6.0,8.0,17,0.00,,,0.00,Wunderground v.1.15,2013-03-02 22:29:00,
2013-03-02 15:34:00,66.6,20.4,30.17,SSW,213,3.0,10.0,17,0.00,,,0.00,Wunderground v.1.15,2013-03-02 22:34:00,
2013-03-02 15:39:00,66.3,20.1,30.17,South,170,6.0,10.0,17,0.00,,,0.00,Wunderground v.1.15,2013-03-02 22:39:00,
2013-03-02 15:44:00,66.2,20.0,30.17,South,181,3.0,11.0,17,0.00,,,0.00,Wunderground v.1.15,2013-03-02 22:44:00,
2013-03-02 15:49:00,66.5,20.3,30.16,SW,220,9.0,11.0,17,0.00,,,0.00,Wunderground v.1.15,2013-03-02 22:49:00,
2013-03-02 15:54:00,66.8,20.5,30.16,South,169,3.0,6.0,17,0.00,,,0.00,Wunderground v.1.15,2013-03-02 22:54:00,
2013-03-02 15:59:00,66.8,19.1,30.16,WSW,243,3.0,6.0,16,0.00,,,0.00,Wunderground v.1.15,2013-03-02 22:59:00,
2013-03-02 16:04:00,66.6,19.0,30.16,West,259,0.0,5.0,16,0.00,,,0.00,Wunderground v.1.15,2013-03-02 23:04:00,
2013-03-02 16:09:00,66.7,19.0,30.16,West,259,3.0,5.0,16,0.00,,,0.00,Wunderground v.1.15,2013-03-02 23:09:00,
2013-03-02 16:14:00,66.7,20.5,30.16,SW,214,4.0,6.0,17,0.00,,,0.00,Wunderground v.1.15,2013-03-02 23:14:00,
2013-03-02 16:19:00,67.1,19.4,30.16,SSW,200,2.0,6.0,16,0.00,,,0.00,Wunderground v.1.15,2013-03-02 23:19:00,
2013-03-02 16:24:00,67.1,19.4,30.15,West,279,1.0,5.0,16,0.00,,,0.00,Wunderground v.1.15,2013-03-02 23:24:00,
2013-03-02 16:29:00,67.3,19.5,30.15,SSE,162,2.0,5.0,16,0.00,,,0.00,Wunderground v.1.15,2013-03-02 23:29:00,
2013-03-02 16:34:00,67.2,19.4,30.15,SW,217,6.0,7.0,16,0.00,,,0.00,Wunderground v.1.15,2013-03-02 23:34:00,
2013-03-02 16:39:00,67.3,19.5,30.15,SSW,204,4.0,7.0,16,0.00,,,0.00,Wunderground v.1.15,2013-03-02 23:39:00,
2013-03-02 16:44:00,67.0,19.3,30.15,SSW,204,2.0,6.0,16,0.00,,,0.00,Wunderground v.1.15,2013-03-02 23:44:00,
2013-03-02 16:49:00,66.7,19.0,30.14,SSW,204,0.0,6.0,16,0.00,,,0.00,Wunderground v.1.15,2013-03-02 23:49:00,
2013-03-02 16:54:00,66.4,20.2,30.14,SW,218,2.0,6.0,17,0.00,,,0.00,Wunderground v.1.15,2013-03-02 23:54:00,
2013-03-02 16:59:00,66.7,19.0,30.14,SW,232,5.0,6.0,16,0.00,,,0.00,Wunderground v.1.15,2013-03-02 23:59:00,
2013-03-02 17:04:00,66.7,19.0,30.14,SE,146,6.0,6.0,16,0.00,,,0.00,Wunderground v.1.15,2013-03-03 00:04:00,
2013-03-02 17:09:00,66.2,20.0,30.14,South,186,4.0,8.0,17,0.00,,,0.00,Wunderground v.1.15,2013-03-03 00:09:00,
2013-03-02 17:14:00,65.6,19.6,30.14,South,175,3.0,9.0,17,0.00,,,0.00,Wunderground v.1.15,2013-03-03 00:14:00,
2013-03-02 17:19:00,65.2,19.2,30.14,South,177,1.0,9.0,17,0.00,,,0.00,Wunderground v.1.15,2013-03-03 00:19:00,
2013-03-02 17:24:00,65.0,19.1,30.13,South,176,2.0,5.0,17,0.00,,,0.00,Wunderground v.1.15,2013-03-03 00:24:00,
2013-03-02 17:29:00,64.7,18.8,30.14,South,176,5.0,9.0,17,0.00,,,0.00,Wunderground v.1.15,2013-03-03 00:29:00,
2013-03-02 17:35:00,64.4,19.9,30.14,South,180,4.0,5.0,18,0.00,,,0.00,Wunderground v.1.15,2013-03-03 00:35:00,
2013-03-02 17:40:00,64.2,19.8,30.13,SSE,163,4.0,5.0,18,0.00,,,0.00,Wunderground v.1.15,2013-03-03 00:40:00,
2013-03-02 17:45:00,63.8,19.4,30.13,SSE,157,3.0,5.0,18,0.00,,,0.00,Wunderground v.1.15,2013-03-03 00:45:00,
2013-03-02 17:50:00,63.4,19.1,30.13,SSE,157,1.0,5.0,18,0.00,,,0.00,Wunderground v.1.15,2013-03-03 00:50:00,
2013-03-02 17:55:00,63.0,20.0,30.14,SSE,157,2.0,4.0,19,0.00,,,0.00,Wunderground v.1.15,2013-03-03 00:55:00,
2013-03-02 18:00:00,62.6,19.7,30.14,SSE,156,1.0,4.0,19,0.00,,,0.00,Wunderground v.1.15,2013-03-03 01:00:00,
2013-03-02 18:05:00,62.2,19.4,30.13,SSE,157,0.0,1.0,19,0.00,,,0.00,Wunderground v.1.15,2013-03-03 01:05:00,
2013-03-02 18:10:00,61.6,20.1,30.13,SSE,157,0.0,1.0,20,0.00,,,0.00,Wunderground v.1.15,2013-03-03 01:10:00,
2013-03-02 18:15:00,61.0,19.6,30.13,SSE,157,0.0,0.0,20,0.00,,,0.00,Wunderground v.1.15,2013-03-03 01:15:00,
2013-03-02 18:20:00,60.4,19.1,30.14,SSE,156,0.0,0.0,20,0.00,,,0.00,Wunderground v.1.15,2013-03-03 01:20:00,
2013-03-02 18:25:00,59.6,19.6,30.13,SSE,156,0.0,0.0,21,0.00,,,0.00,Wunderground v.1.15,2013-03-03 01:25:00,
2013-03-02 18:30:00,58.8,18.9,30.14,SSE,157,0.0,0.0,21,0.00,,,0.00,Wunderground v.1.15,2013-03-03 01:30:00,
2013-03-02 18:35:00,57.8,19.1,30.14,SSE,157,0.0,3.0,22,0.00,,,0.00,Wunderground v.1.15,2013-03-03 01:35:00,
2013-03-02 18:40:00,57.0,19.5,30.14,SSE,157,0.0,3.0,23,0.00,,,0.00,Wunderground v.1.15,2013-03-03 01:40:00,
2013-03-02 18:45:00,56.3,19.9,30.14,SSE,157,0.0,0.0,24,0.00,,,0.00,Wunderground v.1.15,2013-03-03 01:45:00,
2013-03-02 18:50:00,55.7,20.4,30.14,SSE,156,1.0,2.0,25,0.00,,,0.00,Wunderground v.1.15,2013-03-03 01:50:00,
2013-03-02 18:55:00,55.1,19.9,30.14,SSE,157,0.0,2.0,25,0.00,,,0.00,Wunderground v.1.15,2013-03-03 01:55:00,
2013-03-02 19:00:00,54.5,19.3,30.14,SSE,157,0.0,1.0,25,0.00,,,0.00,Wunderground v.1.15,2013-03-03 02:00:00,
2013-03-02 19:06:00,53.9,19.8,30.14,SSE,157,0.0,3.0,26,0.00,,,0.00,Wunderground v.1.15,2013-03-03 02:06:00,
2013-03-02 19:11:00,53.4,19.3,30.15,SSW,203,2.0,4.0,26,0.00,,,0.00,Wunderground v.1.15,2013-03-03 02:11:00,
2013-03-02 19:16:00,53.1,20.0,30.14,SW,217,2.0,6.0,27,0.00,,,0.00,Wunderground v.1.15,2013-03-03 02:16:00,
2013-03-02 19:21:00,52.8,19.7,30.14,SW,217,1.0,2.0,27,0.00,,,0.00,Wunderground v.1.15,2013-03-03 02:21:00,
2013-03-02 19:26:00,52.4,20.2,30.14,SW,217,0.0,2.0,28,0.00,,,0.00,Wunderground v.1.15,2013-03-03 02:26:00,
2013-03-02 19:31:00,52.3,20.1,30.15,SW,217,0.0,0.0,28,0.00,,,0.00,Wunderground v.1.15,2013-03-03 02:31:00,
2013-03-02 19:36:00,52.3,20.1,30.15,SW,217,1.0,2.0,28,0.00,,,0.00,Wunderground v.1.15,2013-03-03 02:36:00,
2013-03-02 19:41:00,52.3,20.1,30.15,SW,215,3.0,4.0,28,0.00,,,0.00,Wunderground v.1.15,2013-03-03 02:41:00,
2013-03-02 19:46:00,52.2,20.0,30.15,South,173,4.0,5.0,28,0.00,,,0.00,Wunderground v.1.15,2013-03-03 02:46:00,
2013-03-02 19:51:00,52.1,19.9,30.15,South,173,3.0,4.0,28,0.00,,,0.00,Wunderground v.1.15,2013-03-03 02:51:00,
2013-03-02 19:57:00,51.9,20.6,30.15,South,174,3.0,5.0,29,0.00,,,0.00,Wunderground v.1.15,2013-03-03 02:57:00,
2013-03-02 20:02:00,51.8,19.7,30.15,South,174,2.0,3.0,28,0.00,,,0.00,Wunderground v.1.15,2013-03-03 03:02:00,
2013-03-02 20:07:00,51.4,20.2,30.15,South,173,0.0,3.0,29,0.00,,,0.00,Wunderground v.1.15,2013-03-03 03:07:00,
2013-03-02 20:12:00,51.1,19.9,30.15,South,173,1.0,2.0,29,0.00,,,0.00,Wunderground v.1.15,2013-03-03 03:12:00,
2013-03-02 20:17:00,50.9,20.5,30.15,South,173,2.0,2.0,30,0.00,,,0.00,Wunderground v.1.15,2013-03-03 03:17:00,
2013-03-02 20:22:00,50.8,20.4,30.15,South,173,2.0,4.0,30,0.00,,,0.00,Wunderground v.1.15,2013-03-03 03:22:00,
2013-03-02 20:27:00,50.8,20.4,30.15,South,173,2.0,4.0,30,0.00,,,0.00,Wunderground v.1.15,2013-03-03 03:27:00,
2013-03-02 20:32:00,50.8,20.4,30.15,South,172,1.0,3.0,30,0.00,,,0.00,Wunderground v.1.15,2013-03-03 03:32:00,
2013-03-02 20:37:00,50.8,20.4,30.15,South,172,1.0,3.0,30,0.00,,,0.00,Wunderground v.1.15,2013-03-03 03:37:00,
2013-03-02 20:42:00,50.7,20.4,30.15,South,173,1.0,2.0,30,0.00,,,0.00,Wunderground v.1.15,2013-03-03 03:42:00,
2013-03-02 20:47:00,50.4,20.9,30.16,South,172,0.0,2.0,31,0.00,,,0.00,Wunderground v.1.15,2013-03-03 03:47:00,
2013-03-02 20:52:00,50.1,20.6,30.16,South,173,0.0,1.0,31,0.00,,,0.00,Wunderground v.1.15,2013-03-03 03:52:00,
2013-03-02 20:57:00,49.7,20.2,30.16,South,173,0.0,1.0,31,0.00,,,0.00,Wunderground v.1.15,2013-03-03 03:57:00,
2013-03-02 21:02:00,49.3,20.6,30.16,South,172,1.0,1.0,32,0.00,,,0.00,Wunderground v.1.15,2013-03-03 04:02:00,
2013-03-02 21:07:00,48.9,20.3,30.16,South,172,2.0,3.0,32,0.00,,,0.00,Wunderground v.1.15,2013-03-03 04:07:00,
2013-03-02 21:12:00,48.5,19.9,30.16,South,171,3.0,3.0,32,0.00,,,0.00,Wunderground v.1.15,2013-03-03 04:12:00,
2013-03-02 21:17:00,48.5,20.7,30.16,South,170,2.0,3.0,33,0.00,,,0.00,Wunderground v.1.15,2013-03-03 04:17:00,
2013-03-02 21:22:00,48.5,19.9,30.16,South,169,1.0,2.0,32,0.00,,,0.00,Wunderground v.1.15,2013-03-03 04:22:00,
2013-03-02 21:27:00,48.3,19.8,30.16,South,170,0.0,2.0,32,0.00,,,0.00,Wunderground v.1.15,2013-03-03 04:27:00,
2013-03-02 21:32:00,47.8,20.1,30.16,South,169,0.0,0.0,33,0.00,,,0.00,Wunderground v.1.15,2013-03-03 04:32:00,
2013-03-02 21:37:00,47.2,19.5,30.16,South,170,0.0,0.0,33,0.00,,,0.00,Wunderground v.1.15,2013-03-03 04:37:00,
2013-03-02 21:42:00,46.6,19.7,30.16,South,170,1.0,2.0,34,0.00,,,0.00,Wunderground v.1.15,2013-03-03 04:42:00,
2013-03-02 21:47:00,46.0,19.8,30.16,South,169,2.0,3.0,35,0.00,,,0.00,Wunderground v.1.15,2013-03-03 04:47:00,
2013-03-02 21:53:00,45.7,19.6,30.16,South,169,1.0,3.0,35,0.00,,,0.00,Wunderground v.1.15,2013-03-03 04:53:00,
2013-03-02 21:58:00,45.2,19.8,30.15,South,169,0.0,3.0,36,0.00,,,0.00,Wunderground v.1.15,2013-03-03 04:58:00,
2013-03-02 22:00:00,45.1,19.7,30.15,South,169,0.0,3.0,36,0.00,,,0.00,Wunderground v.1.15,2013-03-03 05:00:00,
2013-03-02 22:01:00,44.9,20.2,30.15,South,170,0.0,1.0,37,0.00,,,0.00,Wunderground v.1.15,2013-03-03 05:01:00,
2013-03-02 22:02:00,44.9,20.2,30.15,South,169,0.0,1.0,37,0.00,,,0.00,Wunderground v.1.15,2013-03-03 05:02:00,
2013-03-02 22:07:00,44.4,19.7,30.15,South,169,0.0,1.0,37,0.00,,,0.00,Wunderground v.1.15,2013-03-03 05:07:00,
2013-03-02 22:12:00,44.0,20.0,30.15,South,170,0.0,0.0,38,0.00,,,0.00,Wunderground v.1.15,2013-03-03 05:12:00,
2013-03-02 22:17:00,43.5,20.2,30.15,South,169,0.0,0.0,39,0.00,,,0.00,Wunderground v.1.15,2013-03-03 05:17:00,
2013-03-02 22:22:00,43.2,20.5,30.15,South,169,0.0,0.0,40,0.00,,,0.00,Wunderground v.1.15,2013-03-03 05:22:00,
2013-03-02 22:27:00,42.7,19.4,30.15,South,169,0.0,0.0,39,0.00,,,0.00,Wunderground v.1.15,2013-03-03 05:27:00,
2013-03-02 22:32:00,42.3,19.1,30.15,South,169,0.0,1.0,39,0.00,,,0.00,Wunderground v.1.15,2013-03-03 05:32:00,
2013-03-02 22:37:00,41.9,19.3,30.15,South,169,1.0,1.0,40,0.00,,,0.00,Wunderground v.1.15,2013-03-03 05:37:00,
2013-03-02 22:42:00,41.5,19.5,30.15,South,169,0.0,1.0,41,0.00,,,0.00,Wunderground v.1.15,2013-03-03 05:42:00,
2013-03-02 22:47:00,41.2,19.8,30.15,South,169,0.0,1.0,42,0.00,,,0.00,Wunderground v.1.15,2013-03-03 05:47:00,
2013-03-02 22:52:00,41.2,19.8,30.15,South,170,0.0,0.0,42,0.00,,,0.00,Wunderground v.1.15,2013-03-03 05:52:00,
2013-03-02 22:57:00,41.2,18.7,30.15,South,170,0.0,0.0,40,0.00,,,0.00,Wunderground v.1.15,2013-03-03 05:57:00,
2013-03-02 23:02:00,40.9,19.0,30.15,South,170,0.0,0.0,41,0.00,,,0.00,Wunderground v.1.15,2013-03-03 06:02:00,
2013-03-02 23:08:00,40.6,18.7,30.15,South,170,0.0,0.0,41,0.00,,,0.00,Wunderground v.1.15,2013-03-03 06:08:00,
2013-03-02 23:13:00,40.3,19.0,30.14,South,170,0.0,0.0,42,0.00,,,0.00,Wunderground v.1.15,2013-03-03 06:13:00,
2013-03-02 23:18:00,40.2,18.9,30.14,South,170,0.0,0.0,42,0.00,,,0.00,Wunderground v.1.15,2013-03-03 06:18:00,
2013-03-02 23:23:00,40.2,18.9,30.14,South,169,1.0,2.0,42,0.00,,,0.00,Wunderground v.1.15,2013-03-03 06:23:00,
2013-03-02 23:28:00,40.1,18.3,30.14,South,169,0.0,2.0,41,0.00,,,0.00,Wunderground v.1.15,2013-03-03 06:28:00,
2013-03-02 23:33:00,39.8,18.5,30.13,South,170,0.0,2.0,42,0.00,,,0.00,Wunderground v.1.15,2013-03-03 06:33:00,
2013-03-02 23:38:00,39.5,18.3,30.14,South,169,2.0,3.0,42,0.00,,,0.00,Wunderground v.1.15,2013-03-03 06:38:00,
2013-03-02 23:43:00,39.0,17.8,30.14,South,169,2.0,3.0,42,0.00,,,0.00,Wunderground v.1.15,2013-03-03 06:43:00,
2013-03-02 23:48:00,38.7,18.1,30.13,South,169,1.0,3.0,43,0.00,,,0.00,Wunderground v.1.15,2013-03-03 06:48:00,
2013-03-02 23:53:00,38.5,17.9,30.13,South,169,1.0,2.0,43,0.00,,,0.00,Wunderground v.1.15,2013-03-03 06:53:00,
2013-03-02 23:58:00,38.1,18.1,30.14,South,170,1.0,2.0,44,0.00,,,0.00,Wunderground v.1.15,2013-03-03 06:58:00,